Showing default

QIANFAN-12, 60390

Orbit data source: Space-Track

QIANFAN-12, 60390 is a Chinese payload satellite in LEO that was launched on Tue, 06 Aug 2024 UTC via a CHANG ZHENG 6A launch vehicle from the Taiyaun Space Center, China (TSC). Payload-class satellites include a variety of spacecraft equipped with specific instruments for various scientific and technological missions. These include communications satellites like Starlink; space stations such as the ISS; scientific satellites like the Hubble; Earth observation satellites from companies like Planet Labs, Umbra, and HawkEye 360; GPS; miniature CubeSats for education and research; and military/defense satellites.

Loading next visibility...
Identifier
60390, 2024-140M
Orbit
LEO
Country
Flag of CNCN / PRC
Related business
Manufacturer
SECM
Mission
Operational Commercial Communications
Bus & Motor
QIANFAN, Unknown motor
Mass
267 kg wet, ~267 kg dry
Launch date (UTC)
2024-08-06 (2 years ago)
Launch vehicle
CHANG ZHENG 6A
Launch site
Taiyaun Space Center, China (TSC)
Object type
Payload
Rocket body
Debris
Shape & HBR
Box + 1 Pan, 5.0 m
Radar Cross Section
13.200 m², Large (>1 m²)

Expand to show TLE details & history
Last TLE update: 13 hours ago

TLE from 13 hours ago
0 QIANFAN-12
1 60390U 24140M   26171.42237235  .00000115  00000-0  15971-3 0  9997
2 60390  88.9720 279.5969 0013442  27.7881 332.3985 13.51013244 92859
Epoch: 2026-06-20T10:08Z
TLE epoch observation values (Epoch: 2026-06-20T10:08:12.971Z)
Latitude
-0.00005°
Longitude
-141.09437°
Altitude
1,062.617 km
Speed
7.325 km/s
True Right ascension
18h 38m 23s
True Declination
0° 00' 00"
Sunlit
Object was in full shadow at epoch
Visualization orbit readout
Latitude
Unknown
Longitude
Unknown
Altitude
Unknown
Speed
Unknown
Apparent Right ascension
Unknown
Apparent Declination
Unknown
Sunlit
N/A
Visualization observer readout
Local Sidereal Time
10:18:51
Azimuth
Unknown
Elevation
Unknown
Doppler factor
Unknown
Orbital elements
Apogee altitude
1,075.59 km
Perigee altitude
1,055.578 km
Semi-major axis
7,443.721 km
Eccentricity
0.00134
Inclination
88.972°
RAAN
279.5969°
Arg. of periapsis
27.7881°
True anomaly
332.32703°
Mean anomaly
332.3985°
Eccentric anomaly
332.36277°
Mean motion
3.37954 °/min
Orbital period
106.52 mins
BSTAR
0.00015971
Loading maneuver chart data...
Computing Atmospheric mass density...
Loading historical data...
Loading historical data...
Loading historical data...
Loading historical data...
Loading historical data...
Loading historical data...
Loading historical data...

Documentation

Showing up to 5 results
|